Weather History for Rockwall, TX

Change the Weather History Date:

Tuesday, October 9, 2012

  Actual Average (KDFW) Record (KDFW)
Temperature  
Mean Temperature 62 °F 70 °F  
Max Temperature 76 °F 81 °F 95 °F (1963)
Min Temperature 49 °F 59 °F 36 °F (1917)
Degree Days  
Heating Degree Days 3 1  
Month to date heating degree days 9  
Since 1 July heating degree days 15  
Cooling Degree Days 0 6  
Month to date cooling degree days 62  
Year to date cooling degree days 2639  
Growing Degree Days 12 (Base 50)    
Moisture  
Dew Point 55 °F    
Average Humidity 78    
Maximum Humidity 92    
Minimum Humidity 63    
Precipitation  
Precipitation 0.00 in 0.13 in 1.92 in (1968)
Month to date precipitation 0.97  
Year to date precipitation 27.63  
Snow  
Snow - 0.00 in 0.00 in ()
Month to date snowfall 0.0  
Since 1 July snowfall 0.0  
Since 1 September snowfall 0.0  
Snow Depth -    
Sea Level Pressure  
Sea Level Pressure 29.98 in    
Wind  
Wind Speed 8 mph ()    
Max Wind Speed 21 mph    
Max Gust Speed 28 mph    
Visibility 10.0 miles    
Events      
T = Trace of Precipitation, MM = Missing Value Source: Averaged Metar Reports

Daily Weather History Graph

Daily Weather History Graph

Search for Another Location

Airport:

Trip Planner

Search our weather history database for the weather conditions in past years. The results will help you decide how hot, cold, wet, or windy it might be!

Date:

Astronomy

Oct. 09, 2012 Rise Set
Actual Time 7:25 AM CDT 6:59 PM CDT
Civil Twilight 7:01 AM CDT 7:24 PM CDT
Nautical Twilight 6:32 AM CDT 7:52 PM CDT
Astronomical Twilight 6:03 AM CDT 8:21 PM CDT
Moon 1:22 AM CDT (10/9) 3:10 PM CDT (10/9)
Length of Visible Light 12h 22m
Length of Day
11h 33m
Last Quarter, 36% of the Moon is Illuminated
Oct 9
Last Quarter
Oct 15
New
Oct 21
First Quarter
Oct 29
Full
Nov 6
Last Quarter

Hourly Weather History & Observations

Time (CDT) Temp. Dew Point Humidity Pressure Visibility Wind Dir Wind Speed Gust Speed Precip Events Conditions
12:15 AM 51.3 °F 44.8 °F 78% 30.08 in 10.0 mi SE 5.8 mph - N/A   Clear
12:35 AM 52.0 °F 44.8 °F 76% 30.08 in 10.0 mi SE 5.8 mph - N/A   Clear
12:55 AM 51.4 °F 45.0 °F 79% 30.07 in 10.0 mi SE 5.8 mph - N/A   Clear
1:15 AM 51.8 °F 45.1 °F 78% 30.06 in 10.0 mi SE 6.9 mph - N/A   Clear
1:35 AM 51.8 °F 45.5 °F 79% 30.06 in 10.0 mi SE 8.1 mph - N/A   Clear
1:55 AM 51.6 °F 45.7 °F 80% 30.05 in 10.0 mi SSE 6.9 mph - N/A   Clear
2:35 AM 50.2 °F 45.9 °F 85% 30.05 in 10.0 mi SE 3.5 mph - N/A   Clear
2:55 AM 49.6 °F 45.9 °F 87% 30.05 in 10.0 mi SE 5.8 mph - N/A   Clear
3:35 AM 49.5 °F 46.4 °F 89% 30.04 in 10.0 mi SE 5.8 mph - N/A   Clear
3:55 AM 50.0 °F 46.8 °F 89% 30.03 in 10.0 mi SE 4.6 mph - N/A   Clear
4:15 AM 50.0 °F 46.8 °F 89% 30.03 in 10.0 mi SE 4.6 mph - N/A   Clear
4:35 AM 50.5 °F 47.3 °F 89% 30.03 in 10.0 mi SE 5.8 mph - N/A   Mostly Cloudy
4:55 AM 51.4 °F 47.8 °F 87% 30.03 in 10.0 mi SSE 5.8 mph - N/A   Overcast
5:15 AM 52.2 °F 48.0 °F 86% 30.03 in 10.0 mi SSE 6.9 mph - N/A   Overcast
5:35 AM 52.7 °F 48.2 °F 85% 30.03 in 10.0 mi SSE 6.9 mph - N/A   Overcast
5:55 AM 52.9 °F 48.7 °F 86% 30.03 in 10.0 mi SSE 5.8 mph - N/A   Overcast
6:15 AM 53.6 °F 49.1 °F 85% 30.02 in 10.0 mi SSE 6.9 mph - N/A   Overcast
6:35 AM 54.1 °F 49.5 °F 84% 30.03 in 10.0 mi South 8.1 mph - N/A   Overcast
6:55 AM 54.3 °F 49.5 °F 84% 30.03 in 10.0 mi SSE 8.1 mph - N/A   Overcast
7:15 AM 54.5 °F 49.5 °F 83% 30.04 in 10.0 mi South 8.1 mph - N/A   Overcast
7:35 AM 54.5 °F 49.5 °F 83% 30.03 in 10.0 mi SSE 8.1 mph - N/A   Overcast
7:55 AM 54.7 °F 49.6 °F 83% 30.03 in 10.0 mi SSE 9.2 mph - N/A   Overcast
8:15 AM 54.9 °F 50.0 °F 84% 30.03 in 10.0 mi South 8.1 mph - N/A   Overcast
8:35 AM 55.2 °F 50.0 °F 83% 30.04 in 10.0 mi South 8.1 mph - N/A   Overcast
8:55 AM 55.9 °F 50.4 °F 82% 30.04 in 10.0 mi South 8.1 mph - N/A   Overcast
9:15 AM 56.7 °F 50.5 °F 80% 30.04 in 10.0 mi SSE 10.4 mph - N/A   Overcast
9:35 AM 57.6 °F 51.1 °F 79% 30.04 in 10.0 mi SSE 8.1 mph - N/A   Overcast
9:55 AM 59.0 °F 51.6 °F 76% 30.04 in 10.0 mi South 9.2 mph - N/A   Overcast
10:15 AM 60.4 °F 52.0 °F 74% 30.04 in 10.0 mi South 10.4 mph - N/A   Overcast
10:35 AM 61.7 °F 52.7 °F 72% 30.04 in 10.0 mi South 15.0 mph 23.0 mph N/A   Overcast
10:55 AM 63.3 °F 53.2 °F 70% 30.04 in 10.0 mi South 12.7 mph 18.4 mph N/A   Overcast
11:15 AM 63.3 °F 53.2 °F 70% 30.03 in 10.0 mi South 19.6 mph - N/A   Overcast
11:35 AM 64.0 °F 54.0 °F 70% 30.02 in 10.0 mi South 18.4 mph 24.2 mph N/A   Overcast
12:15 PM 64.8 °F 54.5 °F 69% 30.00 in 10.0 mi SSW 16.1 mph 23.0 mph N/A   Overcast
12:35 PM 64.6 °F 54.3 °F 69% 29.99 in 10.0 mi South 15.0 mph 20.7 mph N/A   Overcast
1:15 PM 65.7 °F 55.4 °F 69% 29.97 in 10.0 mi SSW 15.0 mph 20.7 mph N/A   Overcast
1:35 PM 66.2 °F 55.9 °F 69% 29.96 in 10.0 mi South 13.8 mph - N/A   Overcast
1:55 PM 67.1 °F 56.3 °F 68% 29.94 in 10.0 mi South 15.0 mph 21.9 mph N/A   Overcast
2:15 PM 68.2 °F 57.2 °F 68% 29.92 in 10.0 mi SSW 16.1 mph 24.2 mph N/A   Overcast
2:35 PM 69.1 °F 58.1 °F 68% 29.91 in 10.0 mi SSW 15.0 mph 20.7 mph N/A   Overcast
2:55 PM 70.0 °F 59.0 °F 68% 29.91 in 10.0 mi SSW 15.0 mph 19.6 mph N/A   Overcast
3:15 PM 71.2 °F 60.1 °F 68% 29.90 in 10.0 mi SSW 16.1 mph 23.0 mph N/A   Overcast
3:35 PM 72.7 °F 60.8 °F 66% 29.89 in 10.0 mi SSW 19.6 mph 25.3 mph N/A   Overcast
4:15 PM 74.7 °F 61.7 °F 64% 29.88 in 10.0 mi SSW 18.4 mph 26.5 mph N/A   Mostly Cloudy
4:35 PM 74.1 °F 61.7 °F 65% 29.87 in 10.0 mi SSW 20.7 mph 27.6 mph N/A   Mostly Cloudy
4:55 PM 75.7 °F 62.4 °F 63% 29.87 in 10.0 mi SSW 15.0 mph 23.0 mph N/A   Mostly Cloudy
5:15 PM 74.8 °F 62.4 °F 65% 29.87 in 10.0 mi SSW 16.1 mph 21.9 mph N/A   Mostly Cloudy
5:35 PM 75.9 °F 62.8 °F 64% 29.87 in 10.0 mi SSW 12.7 mph 21.9 mph N/A   Scattered Clouds
5:55 PM 75.9 °F 63.1 °F 64% 29.87 in 10.0 mi SSW 13.8 mph - N/A   Scattered Clouds
6:15 PM 75.6 °F 63.5 °F 66% 29.87 in 10.0 mi South 9.2 mph - N/A   Clear
6:35 PM 75.2 °F 63.5 °F 67% 29.88 in 10.0 mi South 9.2 mph - N/A   Clear
6:55 PM 74.3 °F 63.5 °F 69% 29.87 in 10.0 mi South 8.1 mph - N/A   Clear
7:15 PM 73.4 °F 63.5 °F 71% 29.88 in 10.0 mi South 6.9 mph - N/A   Clear
7:35 PM 72.5 °F 63.5 °F 73% 29.87 in 10.0 mi South 6.9 mph - N/A   Clear
7:55 PM 71.6 °F 63.5 °F 76% 29.88 in 10.0 mi South 9.2 mph - N/A   Clear
8:15 PM 70.9 °F 63.5 °F 77% 29.88 in 10.0 mi South 6.9 mph - N/A   Clear
8:35 PM 70.2 °F 63.5 °F 79% 29.89 in 10.0 mi SSE 4.6 mph - N/A   Clear
8:55 PM 69.3 °F 63.5 °F 82% 29.91 in 10.0 mi Calm Calm - N/A   Clear
9:15 PM 68.2 °F 63.5 °F 85% 29.92 in 10.0 mi ESE 4.6 mph - N/A   Clear
9:35 PM 66.6 °F 63.0 °F 88% 29.93 in 10.0 mi East 4.6 mph - N/A   Clear
10:15 PM 66.0 °F 63.0 °F 90% 29.95 in 10.0 mi ESE 5.8 mph - N/A   Clear
10:35 PM 66.4 °F 63.3 °F 90% 29.95 in 10.0 mi ESE 5.8 mph - N/A   Clear
10:55 PM 66.6 °F 63.5 °F 90% 29.96 in 10.0 mi ESE 4.6 mph - N/A   Clear
11:15 PM 65.5 °F 63.1 °F 92% 29.96 in 10.0 mi ESE 4.6 mph - N/A   Clear
11:35 PM 66.2 °F 63.3 °F 90% 29.97 in 10.0 mi SE 4.6 mph - N/A   Clear
11:55 PM 65.8 °F 63.1 °F 91% 29.97 in 10.0 mi SE 4.6 mph - N/A   Clear